This is the latest recevied weather packets stored in our database for station/object OE-11361. If no packets are shown the sender has not sent any weather packets the latest 10 day(s).
| Time | Temp. | Humidity | Pressure | Rain* | Wind** | Luminosity | Snow |
|---|---|---|---|---|---|---|---|
| 1788145876 | 17.22° C | 87% | 1015.4 hPa | 0 mm | - | 0 W/m² | - |
| 1788145503 | 17.22° C | 86% | 1015.4 hPa | 0 mm | - | 0 W/m² | - |
| 1788144903 | 17.22° C | 86% | 1015.3 hPa | 0 mm | - | 0 W/m² | - |
| 1788144076 | 17.78° C | 84% | 1015.3 hPa | 0 mm | - | 0 W/m² | - |
| 1788143703 | 17.22° C | 88% | 1015.2 hPa | 0 mm | - | 0 W/m² | - |
| 1788143103 | 17.22° C | 87% | 1015.4 hPa | 0 mm | - | 0 W/m² | - |
| 1788142276 | 17.22° C | 88% | 1015.9 hPa | 0 mm | - | 0 W/m² | - |
| 1788141904 | 17.22° C | 89% | 1016 hPa | 0 mm | - | 0 W/m² | - |
| 1788141304 | 17.22° C | 88% | 1015.8 hPa | 0 mm | - | 0 W/m² | - |
| 1788140477 | 17.22° C | 87% | 1015.9 hPa | 0 mm | - | 0 W/m² | - |
| 1788140104 | 17.22° C | 87% | 1015.8 hPa | 0 mm | - | 0 W/m² | - |
| 1788139504 | 17.22° C | 87% | 1015.9 hPa | 0 mm | - | 0 W/m² | - |
| 1788138676 | 17.22° C | 86% | 1015.7 hPa | 0 mm | - | 0 W/m² | - |
| 1788138304 | 17.22° C | 86% | 1015.8 hPa | 0 mm | - | 0 W/m² | - |
| 1788137704 | 17.22° C | 86% | 1015.7 hPa | 0 mm | - | 0 W/m² | - |
| 1788136876 | 17.22° C | 84% | 1015.7 hPa | 0 mm | - | 0 W/m² | - |
| 1788136504 | 17.78° C | 83% | 1015.7 hPa | 0 mm | - | 0 W/m² | - |
| 1788135904 | 17.78° C | 80% | 1015.6 hPa | 0 mm | - | 0 W/m² | - |
| 1788135077 | 17.78° C | 83% | 1015.7 hPa | 0 mm | - | 0 W/m² | - |
| 1788134704 | 17.78° C | 82% | 1015.3 hPa | 0 mm | - | 0 W/m² | - |
| 1788134104 | 17.22° C | 85% | 1015.3 hPa | 0 mm | - | 0 W/m² | - |
| 1788133515 | 17.78° C | 82% | 1015.2 hPa | 0 mm | - | 0 W/m² | - |
| 1788132903 | 17.78° C | 82% | 1015.1 hPa | 0 mm | - | 0 W/m² | - |
| 1788132303 | 17.78° C | 82% | 1015.2 hPa | 0 mm | - | 0 W/m² | - |
| 1788131704 | 17.78° C | 82% | 1015.4 hPa | 0 mm | - | 0 W/m² | - |
* Rain latest hour (hover to see other rain measurements)
** Current wind speed in m/s (hover to see current wind gust speed)